Location: Bothwell
(42.3833°S, 147.0000°E)
Time: 08:09:12
(UTC+11:00)

Oscar 19 - Pass Details

Date: 29 November 2023
Orbit: 771 x 789 km, 98.9° (Epoch: 26 February)

Event Time Altitude Azimuth Distance (km) Brightness Sun altitude
Rises 04:55:10 0° 15° (NNE) 3,275 13.6 -6.4°
Reaches altitude 10° 04:57:28 10° 15° (NNE) 2,355 12.9 -6.0°
Maximum altitude 05:02:41 88° 285° (WNW) 806 10.7 -5.2°
Drops below altitude 10° 05:08:00 10° 194° (SSW) 2,388 13.4 -4.4°
Sets 05:10:20 0° 194° (SSW) 3,324 14.2 -4.1°
